Weather in Montegiardino

San Marino     43°54′32″N   12°29′06″E
temp.,
°C
wind,
m/s
gust,
m/s
humid.,
%
clouds,
%
prec.,
mm/h
press.,
hPa
HPBL,
m
14 april, wed
wed1423:00+6sse118994 0.8 1024166
02:00+4s22887 0.9 102497
05:00+5sw118680 0.1 1023105
08:00+6s137639 0.1 1024230
11:00+9ene245778 0.1 10241299
14:00+11ene44455 0.1 10231465
17:00+10e4446100 0.0 10221266
20:00+6se3552100 0.0 1022135
15 april, thu
thu1523:00+5sse34595 0.0 1023106
02:00+4sse336345 0.0 1022132
05:00+4s2259100 0.0 102242
08:00+6se276098 0.0 1022309
11:00+10ese685098 0.0 10221310
14:00+12e774755 0.0 10211597
17:00+10e66495 0.0 10201251
20:00+7se355896 0.0 1020173
16 april, fri
fri1623:00+6s225993 0.0 102155
02:00+4ssw116231 0.0 102063
05:00+4wsw2264100 0.0 101925
08:00+6w126498 0.0 101977
11:00+10nne2457100 0.0 1019901
14:00+12ene5652100 0.0 10171311
17:00+11ene5557100 0.0 10161008
20:00+7ene1266100 0.0 101681
17 april, sat
sat1723:00+6wnw1267100 0.0 101679
02:00+6wnw2474100 0.0 1015149
05:00+5wnw3579100 0.0 1014189
08:00+7wnw3674100 0.1 1014350
11:00+9ne6763100 0.0 10141176
14:00+11ne876081 0.1 10131470
17:00+10ne695986 0.0 10131339
20:00+8ne4866100 0.0 1013468
18 april, sun
sun1823:00+8ne6972100 0.0 1015700
02:00+8ne61076100 0.1 1014845
05:00+8nne6979100 0.4 1014965
08:00+7nne5793100 2.1 10161116
11:00+7ne4788100 2.8 10171020
14:00+8ne358487 4.1 1017816
17:00+9nne347785 0.4 1017901
20:00+7nnw228521 0.7 1017104